[[{"header":{"parameterUnit":"m.s-1","parameterCategory":1,"la1":30.2991,"la2":30.254,"lo1":-89.0895,"lo2":-89.0444,"dy":0.0017,"dx":0.0017,"nx":28,"ny":28,"refTime":"2024-07-21T21:00:00:Z","depth":0,"parameterNumber":2,"parameterNumberName":"U-component_of_WINDS"},"data":[0,0,0,0,0,0,0,0,0,0,0,0,0,0,0,0,0,0,0,0,0,0,0,0,0,0,0,0,0,0,0,0,0,0,0,0,0,0,0,0,0,0,0,0,0,0,0,0,0,0,0,0,0,0,0,0,0,0,1.3907,1.3908,0,1.3974,1.3975,1.3976,1.3978,1.3978,1.3977,1.3976,1.4043,1.4045,1.4048,0,0,0,0,0,0,0,0,0,0,0,0,0,1.3777,1.378,1.3907,1.3908,1.3909,1.3974,1.3975,1.3976,1.3979,1.3978,1.3977,1.3976,1.4042,1.4045,1.4048,0,0,0,0,0,0,0,0,0,0,0,0,0,1.3838,1.378,1.3907,1.3918,1.392,1.3974,1.3975,1.3976,1.3979,1.3978,1.3976,1.3975,1.4041,1.4045,1.4049,1.4096,0,0,1.406,1.4062,0,0,0,0,0,0,0,0,1.3834,1.3843,1.3915,1.3917,1.3919,1.3967,1.3954,1.4016,1.3979,1.3956,1.3976,1.3975,1.4018,1.4024,1.4039,1.4099,1.4102,1.406,1.4063,1.4064,1.4065,0,0,0,0,0,0,0,1.383,1.384,1.3934,1.3917,1.3919,1.3918,1.3926,1.3966,1.3993,1.3958,1.3959,1.3967,1.4019,1.4035,1.4041,1.4103,1.406,1.4064,1.4066,1.4067,1.4201,1.4202,0,0,0,0,0,0,1.3824,1.3836,1.3931,1.3936,1.3873,1.3922,1.393,1.3953,1.3993,1.3998,1.3968,1.3966,1.403,1.4036,1.4043,1.4099,1.4064,1.4068,1.407,1.42,1.4201,1.4202,0,0,0,0,0,0,1.3821,1.3833,1.3929,1.3886,1.3898,1.3925,1.3951,1.3955,1.3971,1.4,1.4004,1.3979,1.4029,1.4038,1.4082,1.4101,1.407,1.4073,1.4198,1.42,1.4202,1.4212,0,0,0,0,0,0,1.3818,1.3832,1.3851,1.3886,1.39,1.3968,1.3952,1.3957,1.3978,1.3977,1.4012,1.4017,1.4029,1.4076,1.4086,1.4106,1.4076,1.4196,1.4199,1.4201,1.421,1.4214,1.4217,0,0,0,0,0,1.3813,1.3851,1.3852,1.3863,1.3925,1.3969,1.3977,1.399,1.3979,1.3998,1.4016,1.4016,1.4098,1.4081,1.4091,1.4113,1.4195,1.4198,1.4201,1.4208,1.4213,1.4217,0,0,0,0,0,0,1.3817,1.3856,1.3857,1.3909,1.3935,1.3969,1.3993,1.3995,1.4025,1.4023,1.4038,1.4046,1.4089,1.4106,1.4086,1.4159,1.4145,1.415,1.4147,1.4152,1.4155,1.415,1.4079,0,0,0,0,0,1.3824,1.3857,1.3889,1.3931,1.3945,1.3967,1.3986,1.3994,1.4022,1.4033,1.4055,1.4081,1.4113,1.4133,1.4164,1.4212,1.4218,1.4232,1.4236,1.4238,1.4242,1.4266,1.4272,1.4212,1.4212,1.4212,0,0,1.3839,1.3864,1.3884,1.3933,1.3954,1.3987,1.3976,1.4012,1.4035,1.4039,1.4081,1.4098,1.4128,1.4174,1.4195,1.4189,1.426,1.4242,1.4244,1.4247,1.427,1.4276,1.4281,1.4214,1.4213,1.4213,0,0,1.3882,1.3905,1.3941,1.3963,1.3996,1.401,1.4018,1.4052,1.4063,1.4106,1.4108,1.4136,1.4191,1.4211,1.4229,1.4277,1.4277,1.4286,1.4305,1.4328,1.4333,1.4337,1.4352,1.4358,1.429,1.429,1.429,0,1.3896,1.3946,1.396,1.3995,1.4015,1.4019,1.4054,1.4075,1.4116,1.4129,1.4121,1.4188,1.4209,1.4258,1.427,1.4285,1.4293,1.4282,1.4332,1.4336,1.434,1.4354,1.436,1.4291,1.4291,1.4291,1.4291,0,1.396,1.3994,1.4019,1.4058,1.4081,1.4116,1.4134,1.4155,1.4161,1.4175,1.4217,1.4242,1.4277,1.4289,1.4295,1.4339,1.4333,1.4329,1.4315,1.4346,1.436,1.4366,1.4292,1.4292,1.4292,1.4292,0,0,1.4008,1.4053,1.4062,1.4079,1.4114,1.414,1.4174,1.4208,1.4225,1.4253,1.428,1.4325,1.432,1.434,1.4348,1.4369,1.4402,1.4361,1.4362,1.4366,1.4449,1.4451,1.4458,1.4403,1.4404,1.4405,1.4446,0,1.4053,1.4115,1.4128,1.418,1.4211,1.4214,1.4243,1.4267,1.4281,1.4308,1.4322,1.4353,1.4346,1.4357,1.4378,1.4394,1.4419,1.4391,1.4427,1.4428,1.4418,1.4465,1.4469,1.4506,1.4451,1.4452,1.4453,0,1.4115,1.4143,1.4199,1.4228,1.4241,1.4268,1.4298,1.4325,1.4351,1.4359,1.438,1.4385,1.4419,1.4403,1.4449,1.443,1.4445,1.4454,1.4456,1.4459,1.4442,1.4468,1.4519,1.4524,1.4462,1.4461,1.4461,0,1.4142,1.4194,1.4234,1.4248,1.4284,1.4301,1.4317,1.4342,1.4361,1.4387,1.4399,1.4429,1.4446,1.4468,1.448,1.4468,1.4524,1.451,1.453,1.4529,1.4541,1.454,1.4593,1.4553,1.4553,1.4553,1.4552,0,1.4191,1.4224,1.4246,1.427,1.4307,1.432,1.4355,1.4371,1.4392,1.4418,1.4423,1.4447,1.4462,1.4488,1.4498,1.4532,1.454,1.4546,1.4548,1.4545,1.4544,1.4554,1.4551,1.4554,1.4554,1.4553,1.4553,0,1.4227,1.4244,1.4286,1.4316,1.4324,1.4349,1.4374,1.4396,1.4409,1.4442,1.445,1.447,1.45,1.4515,1.4552,1.4559,1.4597,1.4598,1.4588,1.4589,1.4607,1.4604,1.4668,1.4676,1.4632,1.4632,1.4632,0,1.4256,1.4282,1.4314,1.4332,1.4347,1.4376,1.4395,1.4408,1.4427,1.4458,1.4476,1.4506,1.4531,1.4578,1.4596,1.4624,1.4624,1.4645,1.4629,1.4624,1.4622,1.462,1.4622,1.4647,1.4648,1.4648,1.4648,0,1.4306,1.4312,1.434,1.4369,1.4392,1.4416,1.4439,1.4453,1.447,1.4491,1.4521,1.454,1.4578,1.4607,1.4636,1.465,1.4651,1.4653,1.4659,1.4656,1.4648,1.465,1.4594,1.4652,1.4651,1.4651,1.4651,1.4651,1.4339,1.4361,1.4386,1.4415,1.4434,1.4456,1.4477,1.4493,1.4519,1.455,1.4556,1.4588,1.4611,1.465,1.4665,1.4689,1.4685,1.4694,1.4696,1.4697,1.4697,1.4645,1.4695,1.4695,1.4695,1.4695,1.4695,0,1.4387,1.4403,1.443,1.4462,1.4485,1.4485,1.451,1.4528,1.4557,1.4578,1.4602,1.4636,1.4664,1.4683,1.471,1.4726,1.4727,1.4733,1.4731,1.4734,1.4701,1.4692,1.4731,1.4731,1.4731,1.4731,1.4731,1.4731,1.4415,1.4451,1.446,1.4505,1.452,1.4552,1.4566,1.4585,1.4602,1.464,1.4663,1.4675,1.4695,1.4723,1.4748,1.4753,1.4762,1.4767,1.4772,1.474,1.4736,1.4733,1.4725,1.477,1.477,1.4802,1.4803,1.4803]},{"header":{"parameterUnit":"m.s-1","parameterCategory":1,"la1":30.2991,"la2":30.254,"lo1":-89.0895,"lo2":-89.0444,"dy":0.0017,"dx":0.0017,"nx":28,"ny":28,"refTime":"2024-07-21T21:00:00:Z","depth":0,"parameterNumber":3,"parameterNumberName":"V-component_of_WINDS"},"data":[0,0,0,0,0,0,0,0,0,0,0,0,0,0,0,0,0,0,0,0,0,0,0,0,0,0,0,0,0,0,0,0,0,0,0,0,0,0,0,0,0,0,0,0,0,0,0,0,0,0,0,0,0,0,0,0,0,0,4.5501,4.5502,0,4.5574,4.5575,4.5576,4.5561,4.556,4.5559,4.5557,4.5628,4.5631,4.5634,0,0,0,0,0,0,0,0,0,0,0,0,0,4.534,4.5343,4.5501,4.5502,4.5503,4.5574,4.5575,4.5576,4.5561,4.556,4.5558,4.5557,4.5627,4.5631,4.5634,0,0,0,0,0,0,0,0,0,0,0,0,0,4.5411,4.5344,4.5501,4.5504,4.5505,4.5574,4.5575,4.5577,4.5562,4.556,4.5558,4.5556,4.5626,4.563,4.5635,4.5704,0,0,4.5649,4.5651,0,0,0,0,0,0,0,0,4.5407,4.5417,4.5502,4.5504,4.5505,4.5557,4.5545,4.5619,4.5562,4.554,4.5557,4.5555,4.5606,4.5612,4.563,4.5707,4.571,4.565,4.5652,4.5654,4.5656,0,0,0,0,0,0,0,4.5402,4.5414,4.553,4.5504,4.5505,4.5499,4.5507,4.5559,4.5583,4.5542,4.5541,4.555,4.5606,4.5625,4.5631,4.5711,4.5649,4.5654,4.5657,4.5658,4.5844,4.5846,0,0,0,0,0,0,4.5397,4.541,4.5527,4.5532,4.545,4.5504,4.5513,4.5542,4.5582,4.5587,4.5552,4.5549,4.5618,4.5626,4.5634,4.5714,4.5654,4.5659,4.5662,4.5842,4.5845,4.5847,0,0,0,0,0,0,4.5394,4.5408,4.5524,4.5471,4.5485,4.5509,4.5542,4.5545,4.5564,4.559,4.5594,4.5568,4.5617,4.5627,4.5686,4.5716,4.5661,4.5665,4.584,4.5843,4.5846,4.5877,0,0,0,0,0,0,4.5389,4.5407,4.5435,4.5472,4.5488,4.5577,4.5544,4.5547,4.5573,4.557,4.5606,4.561,4.5616,4.5679,4.5691,4.5722,4.5669,4.5837,4.5841,4.5845,4.5874,4.5881,4.5888,0,0,0,0,0,4.5383,4.5441,4.5437,4.5451,4.5524,4.5579,4.5589,4.5596,4.5576,4.5602,4.5618,4.5609,4.5712,4.5685,4.5698,4.5731,4.5835,4.584,4.5845,4.587,4.588,4.5888,0,0,0,0,0,0,4.5406,4.5446,4.5441,4.5513,4.5543,4.5577,4.5612,4.5606,4.5642,4.5638,4.5644,4.5652,4.5711,4.5727,4.5697,4.5798,4.577,4.5778,4.5785,4.5794,4.5801,4.5795,4.5673,0,0,0,0,0,4.542,4.5463,4.5495,4.5554,4.557,4.5588,4.5612,4.5615,4.5646,4.5659,4.5679,4.5708,4.5746,4.5771,4.5809,4.5876,4.5882,4.5905,4.5912,4.5918,4.5924,4.5957,4.5966,4.5863,4.5863,4.5863,0,0,4.5448,4.5475,4.5501,4.5559,4.5583,4.5625,4.5599,4.5645,4.5676,4.5665,4.5721,4.5737,4.5769,4.5832,4.5861,4.5847,4.5953,4.5924,4.5928,4.5931,4.5963,4.5972,4.5981,4.5866,4.5865,4.5865,0,0,4.5519,4.5546,4.5597,4.5621,4.5657,4.5669,4.5681,4.5715,4.5725,4.5782,4.5774,4.5809,4.5877,4.5899,4.5919,4.5996,4.5987,4.6008,4.6044,4.6076,4.6084,4.6091,4.6116,4.6125,4.6014,4.6014,4.6014,0,4.5549,4.5614,4.5623,4.567,4.5693,4.5687,4.5736,4.5759,4.5805,4.582,4.5805,4.5887,4.5909,4.5974,4.5993,4.6011,4.6022,4.6003,4.6083,4.609,4.6097,4.612,4.6129,4.6016,4.6016,4.6016,4.6015,0,4.5647,4.5692,4.5728,4.5773,4.5801,4.5849,4.5863,4.589,4.589,4.5902,4.5958,4.5983,4.6024,4.604,4.6041,4.6105,4.6095,4.6081,4.6053,4.6109,4.613,4.6139,4.6019,4.6018,4.6018,4.6017,0,0,4.5735,4.5783,4.5796,4.5815,4.5854,4.5887,4.5933,4.5974,4.5995,4.6027,4.6063,4.6119,4.6106,4.6128,4.6131,4.616,4.6215,4.6142,4.6143,4.6152,4.6283,4.6291,4.6302,4.621,4.6212,4.6213,4.6279,0,4.5808,4.5891,4.5899,4.5972,4.6011,4.6004,4.6044,4.607,4.6082,4.6115,4.6128,4.6166,4.6148,4.6161,4.6189,4.6203,4.6241,4.6198,4.6241,4.6242,4.6231,4.6314,4.6323,4.6385,4.6288,4.629,4.6291,0,4.5905,4.5939,4.6016,4.6046,4.6063,4.6099,4.6134,4.6167,4.6196,4.6202,4.6226,4.6225,4.6269,4.624,4.6299,4.6269,4.6287,4.6296,4.6299,4.6301,4.6268,4.6315,4.6405,4.6413,4.6305,4.6304,4.6303,0,4.5958,4.6023,4.6077,4.6093,4.6131,4.6155,4.6171,4.6198,4.6221,4.6252,4.6266,4.6301,4.632,4.6346,4.6353,4.6332,4.641,4.6383,4.6414,4.6414,4.6429,4.6428,4.652,4.6445,4.6445,4.6445,4.6445,0,4.6037,4.6083,4.61,4.6133,4.6184,4.6191,4.624,4.6255,4.6278,4.6311,4.6308,4.6339,4.6347,4.6378,4.6384,4.643,4.6439,4.6443,4.6443,4.6442,4.6441,4.6452,4.6447,4.6447,4.6447,4.6446,4.6446,0,4.6104,4.6118,4.6175,4.6205,4.6214,4.6249,4.6274,4.6304,4.6315,4.6356,4.6367,4.6383,4.642,4.643,4.6474,4.6477,4.653,4.6528,4.6521,4.652,4.6549,4.6545,4.665,4.6662,4.6582,4.6583,4.6583,0,4.6152,4.6188,4.6221,4.6244,4.6261,4.6298,4.6321,4.6329,4.6352,4.6385,4.641,4.6447,4.6476,4.6535,4.6549,4.6582,4.6579,4.6613,4.6583,4.658,4.6575,4.6572,4.6574,4.6618,4.6619,4.6619,4.662,0,4.6236,4.624,4.6274,4.631,4.6337,4.6366,4.6393,4.6411,4.6422,4.6448,4.6486,4.6509,4.6553,4.6588,4.662,4.6634,4.6628,4.6629,4.6638,4.6635,4.6628,4.6629,4.6533,4.6626,4.6626,4.6625,4.6625,4.6625,4.6293,4.6323,4.635,4.6387,4.6408,4.6433,4.6462,4.6476,4.6508,4.6545,4.6547,4.6587,4.6612,4.6655,4.6671,4.67,4.669,4.6703,4.6706,4.6708,4.6709,4.6626,4.6707,4.6707,4.6706,4.6706,4.6706,0,4.6373,4.639,4.6425,4.6462,4.649,4.6483,4.6512,4.6535,4.6571,4.6595,4.6623,4.6665,4.6698,4.6715,4.6747,4.6768,4.6765,4.6776,4.6773,4.6775,4.6718,4.6706,4.6777,4.6777,4.6777,4.6777,4.6777,4.6777,4.6419,4.6467,4.6475,4.6533,4.6549,4.6589,4.6605,4.6627,4.6645,4.6692,4.672,4.6731,4.6751,4.6785,4.6814,4.6818,4.6828,4.6839,4.6841,4.6787,4.678,4.6773,4.6762,4.6843,4.6843,4.6896,4.6896,4.6897]}]]